DMSP 5D-2 F13 DEB, 40409

Orbit data source: Space-Track

DMSP 5D-2 F13 DEB, 40409 is space debris in SSO originally from a launch on Fri, 24 Mar 1995 UTC launched from the Air Force Western Test Range (AFWTR). Debris objects in space refer to the collection of defunct objects orbiting the Earth. Examples of debris include non-operational satellites, rocket bodies, and fragments generated from explosions, collisions, or faulty payload assembly.

Loading next visibility...
Identifier
40409, 1995-015W
Orbit
SSO
Country
Flag of USUS
Related business
Manufacturer
Unknown
Mission
Spacecraft
Bus & Motor
Unknown
Mass
Unknown
Launch date (UTC)
1995-03-24 (31 years ago)
Launch vehicle
Unknown
Launch site
Air Force Western Test Range (AFWTR)
Object type
Payload
Rocket body
Debris
Shape & HBR
Unknown shape, 0.1 m
Radar Cross Section
Small (<0.1 m²)

Expand to show TLE details & history
Last TLE update: 2 days ago

TLE from 2 days ago
0 DMSP 5D-2 F13 DEB
1 40409U 95015W   26171.02212198  .00001875  00000-0  78636-3 0  9993
2 40409  98.7338 196.0406 0004298  76.9505 283.2155 14.27166325586167
Epoch: 2026-06-20T00:31Z
TLE epoch observation values (Epoch: 2026-06-20T00:31:51.339Z)
Latitude
0.00001°
Longitude
-80.16603°
Altitude
803.437 km
Speed
7.452 km/s
True Right ascension
13h 04m 09s
True Declination
0° 00' 00"
Sunlit
Object was in daylight at epoch
Visualization orbit readout
Latitude
Unknown
Longitude
Unknown
Altitude
Unknown
Speed
Unknown
Apparent Right ascension
Unknown
Apparent Declination
Unknown
Sunlit
N/A
Visualization observer readout
Local Sidereal Time
23:18:34
Azimuth
Unknown
Elevation
Unknown
Doppler factor
Unknown
Orbital elements
Apogee altitude
801.453 km
Perigee altitude
795.284 km
Semi-major axis
7,176.506 km
Eccentricity
0.00043
Inclination
98.7338°
RAAN
196.0406°
Arg. of periapsis
76.9505°
True anomaly
283.16755°
Mean anomaly
283.2155°
Eccentric anomaly
283.19152°
Mean motion
3.57004 °/min
Orbital period
100.84 mins
BSTAR
0.00078636
Loading maneuver chart data...
Computing Atmospheric mass density...

Documentation

Showing up to 5 results
|